Regional Weather Roundup
Issued by NWS Burlington, VT

Home | Current Version | Previous Version | Text Only | Print | Product List | Glossary On
Versions: 1 2 3 4 5 6 7 8 9 10 11 12 13 14 15 16 17 18 19 20 21 22 23 24 25 26 27 28 29 30 31 32 33 34 35 36 37 38 39 40 41 42 43 44 45 46 47 48 49 50
000
ASUS41 KBTV 270530
RWRBTV
VERMONT REGIONAL WEATHER ROUNDUP
NATIONAL WEATHER SERVICE BURLINGTON VT
100 AM EDT MON APR 27 2015

NOTE: "FAIR" INDICATES FEW OR NO CLOUDS BELOW 12,000 FEET WITH NO
SIGNIFICANT WEATHER AND/OR OBSTRUCTIONS TO VISIBILITY.

* THESE REPORTS ARE NOT UNDER NWS QUALITY CONTROL AND/OR DO NOT
  REPORT WEATHER SUCH AS PRECIPITATION AND FOG.

VTZ001>019-270600-
_____VERMONT_____


CITY           SKY/WX    TMP DP  RH WIND       PRES   REMARKS
BURLINGTON     CLOUDY    45  40  82 NW5       29.67S
MONTPELIER     CLOUDY    42  36  79 NW6       29.68S
MORRISVILLE    CLOUDY    44  37  76 NW8       29.66S
ST. JOHNSBURY*   N/A     43  38  82 MISG      29.62F
LYNDONVILLE*   CLOUDY    41  36  81 W3        29.64F
MIDDLEBURY*    CLOUDY    45  37  72 N7        29.67R
RUTLAND*       CLOUDY   N/A N/A N/A NW9       29.65S
SPRINGFIELD    CLOUDY    43  33  68 CALM      29.65S
HIGHGATE*      CLOUDY    43  40  89 CALM      29.67S
NEWPORT*       CLOUDY    39  38  94 N5        29.65S
BENNINGTON     CLOUDY    46  33  60 W6        29.66S
SUTTON*          N/A     39 N/A N/A MISG        N/A
MT. MANSFIELD*   N/A     32 N/A N/A CALM        N/A

_____LAKE CHAMPLAIN_____


CITY           SKY/WX    TMP DP  RH WIND       PRES   REMARKS
BURTON ISLAND*   N/A     41  41 100 W3          N/A
COLCHESTER RF*   N/A     45  39  81 N8          N/A
DIAMOND ISL*     N/A     46  37  71 W1          N/A

$$

NYZ007-026>031-035-052-083-270600-
_____NORTHERN NEW YORK_____


CITY           SKY/WX    TMP DP  RH WIND       PRES   REMARKS
PLATTSBURGH    CLOUDY    43  41  93 W3        29.68S
SARANAC LAKE   CLOUDY    38  36  92 CALM      29.66S
MASSENA        CLOUDY    43  37  79 NW7       29.73R
OGDENSBURG*    CLOUDY    43  39  87 N6        29.73S
POTSDAM*       CLOUDY    41  39  93 N3        29.72R
WATERTOWN      CLOUDY    41  35  79 SW3       29.74R
FT DRUM        CLOUDY    42  36  81 W3        29.72R
ALBANY         CLOUDY    48  32  53 NW8       29.69S
GLENS FALLS    CLOUDY    48  32  53 NW7       29.67F

$$
NHZ002-005-011-270600-
_____NEW HAMPSHIRE_____


CITY           SKY/WX    TMP DP  RH WIND       PRES   REMARKS
LEBANON        CLOUDY    45  35  68 CALM      29.64S
KEENE          CLOUDY    45  32  61 CALM      29.64S
MT WASHINGTON  FOG       23  23 100 N26         N/A  VSB 0   WCI   6
PLYMOUTH       CLOUDY    46  39  76 CALM      29.62S
WHITEFIELD     CLOUDY    40  35  83 CALM      29.62S

$$

_____REGIONAL QUEBEC LOCATIONS_____


CITY           SKY/WX    TMP DP  RH WIND       PRES   REMARKS
MONTREAL       MOCLDY    45  36  70 NW6       29.69F
QUEBEC CITY    MOCLDY    37  37 100 S3        29.67F
SHERBROOKE     LGT RAIN  37  36  93 VRB2      29.65S

_____REGIONAL ONTARIO LOCATIONS_____


CITY           SKY/WX    TMP DP  RH WIND       PRES   REMARKS
OTTAWA         CLOUDY    41  36  81 NW10      29.74S

______KEY______
VSB  - VISIBILITY IN MILES
WCI  - WIND CHILL INDEX
HX   - HEAT INDEX
$$
NNNN



USA.gov is the U.S. government's official web portal to all federal, state and local government web resources and services.